Location: Kelowna
(49.8880°N, 119.4960°W)
Time: 20:38:57
(UTC-07:00)

STARS - Visible Passes

Search period start: 15 April 2024 00:00
Search period end: 25 April 2024 00:00
Orbit: 609 x 620 km, 98.1° (Epoch: 15 April)

Date Brightness Start Highest point End Pass type
(mag) Time Alt. Az. Time Alt. Az. Time Alt. Az.
15 Apr ? 00:58:55 10° NNE 01:01:28 34° NNE 01:01:28 34° NNE visible
15 Apr ? 02:35:52 10° NNW 02:38:32 18° NW 02:38:32 18° NW visible
16 Apr ? 01:14:28 10° NNE 01:17:18 41° NNE 01:17:18 41° NNE visible
16 Apr ? 02:52:03 10° NNW 02:54:08 13° NW 02:54:21 13° WNW visible
16 Apr ? 23:55:15 10° NE 23:56:04 13° ENE 23:56:04 13° ENE visible
17 Apr ? 01:30:02 10° N 01:33:07 43° N 01:33:07 43° N visible
18 Apr ? 00:10:14 10° NE 00:11:52 17° ENE 00:11:52 17° ENE visible
18 Apr ? 01:45:41 10° N 01:48:55 39° NW 01:48:55 39° NW visible
19 Apr ? 00:25:26 10° NNE 00:27:39 23° ENE 00:27:39 23° ENE visible
19 Apr ? 02:01:22 10° N 02:04:42 32° NW 02:04:42 32° NW visible
20 Apr ? 00:40:45 10° NNE 00:43:26 31° NE 00:43:26 31° NE visible
20 Apr ? 02:17:07 10° N 02:20:29 25° WNW 02:20:29 25° WNW visible
21 Apr ? 00:56:08 10° NNE 00:59:11 41° NE 00:59:11 41° NE visible
21 Apr ? 02:32:58 10° NNW 02:35:59 19° WNW 02:36:14 19° WNW visible
22 Apr ? 01:11:35 10° NNE 01:14:56 53° NNE 01:14:56 53° NNE visible
22 Apr ? 02:49:00 10° NNW 02:51:18 14° WNW 02:51:59 14° WNW visible
22 Apr ? 23:52:30 10° NE 23:53:38 13° ENE 23:53:38 13° ENE visible
23 Apr ? 01:27:06 10° N 01:30:40 57° NNW 01:30:40 57° NNW visible
23 Apr ? 03:05:35 10° NW 03:06:33 11° NW 03:07:32 10° WNW visible
24 Apr ? 00:07:21 10° NE 00:09:21 18° ENE 00:09:21 18° ENE visible
24 Apr ? 01:42:38 10° N 01:46:24 47° NW 01:46:24 47° NW visible
